Location: Drocourt
(49.0571°N, 1.7669°E)
Time: 20:01:04
(UTC+00:00)

Transit 4A - Pass Details

Date: 13 April 2024
Orbit: 871 x 971 km, 66.8° (Epoch: 18 May)

Event Time Altitude Azimuth Distance (km) Brightness Sun altitude
Rises 14:01:04 0° 200° (SSW) 3,544 11.6 42.2°
Reaches altitude 10° 14:03:37 10° 196° (SSW) 2,590 11.1 41.9°
Maximum altitude 14:09:30 59° 119° (ESE) 1,031 8.6 41.2°
Drops below altitude 10° 14:15:16 10° 41° (NE) 2,548 9.8 40.5°
Sets 14:17:46 0° 38° (NE) 3,482 10.4 40.2°
